Regional Weather Roundup
Issued by NWS

Home | Current Version | Previous Version | Graphics & Text | Print | Product List | Glossary On
Versions: 1 2 3 4 5 6 7 8 9 10 11 12 13 14 15 16 17 18 19 20 21 22 23 24 25 26 27 28 29 30 31 32 33 34 35 36 37 38 39 40 41 42 43 44 45 46 47 48 49 50
000
ASUS45 KTFX 262004
RWRMT
MONTANA HOURLY WEATHER ROUNDUP
NATIONAL WEATHER SERVICE GREAT FALLS MT
104 PM MST MON JAN 26 2015

NOTE: "FAIR" INDICATES FEW OR NO CLOUDS BELOW 12000 FEET WITH NO
SIGNIFICANT WEATHER AND/OR OBSTRUCTIONS TO VISIBILITY.

* THESE STATIONS ARE NOT UNDER NWS QUALITY CONTROL. THEY DO NOT
   REPORT WEATHER SUCH AS PRECIPITATION OR FOG.

MTZ001>007-043-262100-
WEST OF THE DIVIDE
CITY           SKY/WX    TMP DP  RH WIND       PRES   REMARKS
KALISPELL      SUNNY     37  32  82 CALM      30.05F
MISSOULA       SUNNY     39  30  70 CALM      30.12F
BUTTE          SUNNY     46  30  54 SE3       30.18F
MULLAN PASS    SUNNY     52  25  35 SW9G21    30.11F
* ANACONDA     SUNNY     61  27  27 SE10       N/A
* ESSEX        N/A       46  32  58 E1         N/A
* LINCOLN      N/A       44  28  53 SE3        N/A
* LOOKOUT PASS N/A       56  29  36 SE8G14     N/A
* POLSON       N/A       48  31  52 SE3        N/A
* RONAN APT    SUNNY     36  36 100 N/A        N/A
* SEELEY LAKE  N/A       52  29  41 S2         N/A
* THOMP F APT  SUNNY     43  32  65 S2         N/A
* YAAK HILL    N/A       36  34  92 N/A        N/A
$$

MTZ008-052>055-262100-
SOUTHWEST MONTANA
CITY           SKY/WX    TMP DP  RH WIND       PRES   REMARKS
BOZEMAN        PTCLDY    46  30  54 S3        30.16F
DILLON         SUNNY     52  30  43 SW13      30.19F
* W YELLOWSTON SUNNY     33  27  79 SW2        N/A
* THREE FORKS  SUNNY     48  36  63 N/A        N/A
* BOULDER HILL N/A       49  24  38 S14        N/A
* MONIDA PASS  N/A       32  32 100 E17        N/A   WCI  21
* RAYNOLDS PAS N/A       37  16  42 SE15       N/A   WCI  28
* WHITEHALL    N/A       56  30  37 SW9G14     N/A
* WISE RIVER   N/A       40  28  62 W3         N/A
$$

MTZ009>010-012-014-046-048-049-054-262100-
EAST SLOPES AND CENTRAL MONTANA
CITY           SKY/WX    TMP DP  RH WIND       PRES   REMARKS
CUT BANK       PTCLDY    64  30  28 SW18G32   29.93F
GREAT FALLS    PTCLDY    66  28  24 SW21G30   29.99F
HELENA         PTCLDY    48  34  59 NW7       30.12F
MALMSTROM AFB  PTCLDY    64  32  30 SW21      29.99F
* DEARBORN     N/A       56  30  37 S10        N/A
* EAST GLACIER N/A       56  27  33 W20G27     N/A
* MONARCH      N/A       60  22  23 W18G26     N/A
* PENDROY      N/A       60  32  35 SW8        N/A
* ROGERS PASS  N/A       53  24  32 E6G17      N/A
* SWEET GRASS  N/A       58  29  33 SW27G34    N/A
$$

MTZ011-013-016-021-035-040-045-047-050-051-262100-
NORTH CENTRAL MONTANA
CITY           SKY/WX    TMP DP  RH WIND       PRES   REMARKS
HAVRE          CLOUDY    52  34  50 SW20      29.92F
LEWISTOWN      CLOUDY    48  30  50 SW14      30.02F
* N BAR RANCH  SUNNY     64  23  21 W8G15     30.03F
* CHESTER      N/A       44  34  68 N/A        N/A
* DENTON       N/A       60  34  38 S7         N/A
* GEYSER       N/A       68  26  21 W27G34     N/A
* JUDITH GAP   N/A       53  30  41 S4         N/A
* LOMA         N/A       57  35  44 W9G14      N/A
$$

MTZ017>020-022>027-061-062-262100-
NORTHEAST MONTANA
CITY           SKY/WX    TMP DP  RH WIND       PRES   REMARKS
GLASGOW        PTSUNNY   46  36  68 E3        29.93F
GLENDIVE       PTCLDY    48  36  63 SE6       29.97F
JORDAN         PTSUNNY   52  37  57 W7        29.95F
SIDNEY         PTCLDY    52  34  50 S3        29.98F
WOLF POINT     CLOUDY    46  36  68 SW5       29.94F
* BEAVER HILL  N/A       48  34  59 S2         N/A
* CIRCLE       N/A       52  41  66 SW3        N/A
* LINDSAY DVD  N/A       55  34  45 W11G16     N/A
* NAVAJO       N/A       45  29  54 SW9        N/A
* SACO         N/A       47  36  66 SE4        N/A
$$

MTZ028>042-056>058-262100-
SOUTHCENTRAL AND SOUTHEAST MONTANA
CITY           SKY/WX    TMP DP  RH WIND       PRES   REMARKS
BAKER          PTCLDY    55  37  51 CALM      29.99F
BILLINGS       CLOUDY    55  28  35 SW22      30.07F
LIVINGSTON     SUNNY     64  25  23 SW29G35   30.10F
MILES CITY     PTSUNNY   55  36  49 W7        29.98F
* LAUREL APT   CLOUDY    55  28  35 SW13       N/A
* ROUNDUP APT  CLOUDY    59  28  31 S10G15     N/A
* ALZADA       N/A       62  34  35 SW9        N/A
* HYSHAM       N/A       55  28  35 W6G12      N/A
* LAME DEER    N/A       57  28  33 W10G17     N/A
* REED POINT   N/A       56  35  45 E2         N/A
* ROSCOE HILL  N/A       71  19  14 SW5G11     N/A
$$

REGIONAL REPORTS...DAKOTAS
CITY           SKY/WX    TMP DP  RH WIND       PRES   REMARKS
WILLISTON      SUNNY     48  32  54 SW7       29.95F
DICKINSON      PTCLDY    50  32  50 W10       29.96F
CROSBY         SUNNY     45  32  60 SW3       29.93F
WATFORD CITY   SUNNY     46  32  58 W10       29.94F
BISMARCK       SUNNY     48  30  50 NW9       29.96S
GRAND FORKS    CLOUDY    34  27  76 N22G28    29.88R WCI  22
FARGO          CLOUDY    43  32  65 NW20      29.86R
BUFFALO SD     PTCLDY    61  34  36 W20       29.93F
RAPID CITY     SUNNY     68  28  22 NW20      30.03F
$$

REGIONAL REPORTS...WYOMING/IDAHO/WASHINGTON
CITY           SKY/WX    TMP DP  RH WIND       PRES   REMARKS
GILLETTE       SUNNY     64  30  28 W12       30.09F
SHERIDAN       PTCLDY    63  32  31 S5        30.06F
CODY           PTSUNNY   39  30  70 N3        30.17F
YELLOWSTONE LA SUNNY     27  19  72 E3        30.39F
SALMON         CLOUDY   N/A N/A N/A SW3       30.31F VSB M1/4
MULLAN PASS    SUNNY     52  25  35 SW9G21    30.11S
SAND POINT     FOG       36  36 100 CALM      30.10F VSB M1/4
SPOKANE        FOG       39  39 100 NE6       30.05F VSB M1/4 WCI  35

$$




USA.gov is the U.S. government's official web portal to all federal, state and local government web resources and services.